Вернуться в каталог

FENGYUN 1C DEB

АктивенPO
NORAD 31297·DEBRIS·🇨🇳 China

Запущен May 10, 1999 с Taiyuan Satellite Launch Center

Loading…

Ближайшие Пролёты (ближайшие 24 часа)

TLE

СвежийSource: Space-Track

Эпоха: Sep 14, 2026, 06:21 UTC

1 31297U 99025BPF 26257.26478130  .00000578  00000-0  12267-3 0  9991
2 31297  98.9722  59.9351 0137183   5.5827 116.6361 14.57948903 33148

Отслеживайте FENGYUN 1C DEB в реальном времени с AllMySat

Download on the App Store